CAPE
128 349 578 1032 1025 642 1075 1101 1010 585 489 162 621 441 871 1169 1204 1301 835 1265 1060 977 995 1103 1189 1422 1652 1140 1228 1070 1056 1172 1374 1291 1271 1470 1670 1425 1669 1822 2114 2046 1641
0 47 122 412 846 1093 1239 974 806 732 452 23 89 394 550 947 1307 1289 1176 1035 977 968 805 657 765 1059 1226 1123 1139 1131 1268 1373 1349 1387 1379 1179 1228 1367 834 768 954 936 764
29 16 57 293 339 947 866 1013 960 711 637 299 50 240 287 576 1199 1229 1104 959 814 1094 798 948 1056 1073 835 873 1052 1083 943 945 1126 1210 1189 1458 1601 1122 914 631 510 213 364
0 1 85 105 273 621 957 750 854 1018 785 659 605 270 25 621 828 1200 1228 1240 1220 1164 1096 1252 1415 1375 1307 1179 1241 1258 1196 1076 1024 995 1228 1220 1272 1016 698 180 117 56 115
2 0 18 27 104 197 214 271 695 845 1184 1229 1008 841 1111 1123 1240 1201 1007 1122 1027 1096 1250 1137 1261 1460 1710 1712 1641 1503 1489 1383 1065 832 630 711 621 401 79 137 27 105 212
0 5 3 21 14 30 65 91 97 362 977 1173 1371 1407 1548 1670 1604 1240 1219 1277 1320 955 1133 1222 949 879 990 1265 1406 1405 1536 1437 1035 745 573 270 3 0 37 59 143 245 325
0 0 0 0 0 0 2 3 18 49 218 463 826 1105 1371 1426 1462 1354 1164 956 958 867 1043 1361 1210 1148 1181 1113 952 907 1003 948 910 688 649 576 452 399 449 365 409 494 532
0 0 0 0 0 0 0 0 0 0 11 86 112 209 389 746 898 951 850 867 832 757 723 744 858 1063 1349 1176 1055 1057 1063 1133 1080 834 737 816 762 836 765 727 549 667 705
0 0 0 0 0 0 0 0 0 0 0 0 0 4 26 90 144 332 351 683 870 841 882 934 969 948 873 781 793 790 826 756 989 858 823 1163 1117 1007 871 924 1162 968 645
0 0 0 0 0 0 0 0 0 0 0 0 0 0 0 0 0 5 44 239 476 715 755 816 799 713 391 231 468 731 788 732 692 775 913 872 956 1040 851 677 959 747 519
0 0 0 0 0 0 0 0 0 0 0 0 0 0 0 0 7 1 3 74 186 307 411 523 520 40 0 8 8 280 378 168 253 252 263 422 654 782 814 722 624 738 518
0 0 0 0 0 0 0 0 0 0 0 0 0 0 0 0 0 0 0 0 0 4 17 0 0 0 0 0 0 204 176 15 117 240 228 283 343 466 617 717 675 554 659
0 0 0 0 0 0 0 0 0 0 0 0 0 0 0 0 0 0 0 0 0 0 0 0 0 0 0 0 0 0 0 3 45 41 101 220 224 153 141 205 293 476 552
0 0 0 0 0 0 0 0 0 0 0 0 0 0 0 0 0 0 0 0 0 0 0 0 0 0 0 0 0 0 0 0 0 33 154 243 231 186 172 106 129 208 202
0 0 0 0 0 0 0 0 0 0 0 0 0 0 0 0 0 0 0 0 0 0 0 0 0 0 0 0 0 0 0 0 0 50 136 190 229 197 218 209 136 130 177
0 0 0 0 0 0 0 0 0 0 0 0 0 0 0 0 0 0 0 0 0 0 0 0 0 0 0 0 0 0 0 0 0 3 2 37 92 149 194 212 227 282 329
0 0 0 0 0 0 0 0 0 0 0 0 0 0 0 0 0 0 0 0 0 0 0 0 0 0 0 1 0 0 0 0 3 4 5 20 94 230 275 280 261 257 328
0 0 0 0 0 0 0 0 0 0 0 0 0 0 0 0 0 0 0 0 0 0 0 0 0 0 0 0 0 0 0 0 1 3 4 5 20 88 98 99 194 198 99
0 0 0 0 0 0 0 0 0 0 0 0 0 0 0 0 0 0 0 0 0 0 0 0 0 0 0 0 0 0 1 0 0 2 5 5 4 3 6 10 21 6 0
0 0 0 0 0 0 0 0 0 0 0 0 0 0 0 0 0 0 0 0 0 0 0 0 2 1 0 0 0 0 0 0 0 0 4 5 4 4 3 18 11 7 0
0 0 0 0 0 0 0 0 0 0 0 0 0 0 3 0 0 0 0 2 1 0 0 0 0 0 0 0 0 0 1 1 3 3 4 5 4 6 7 2 4 3 3
0 0 0 0 0 0 0 0 0 0 0 0 0 0 0 0 1 0 4 6 0 0 0 0 0 0 0 0 0 1 0 0 1 3 5 6 6 7 7 7 2 4 4
0 0 0 0 0 0 0 0 0 0 0 0 0 0 0 0 9 6 3 7 0 0 0 0 0 0 0 1 1 0 1 0 2 6 8 7 7 8 8 8 7 3 3
0 0 0 0 0 0 0 0 0 0 1 0 0 0 2 3 1 1 2 4 1 0 0 0 0 1 2 4 3 3 2 2 3 4 4 4 6 7 8 8 8 6 5
0 0 0 0 0 0 0 0 0 0 0 0 0 2 4 5 4 1 4 6 3 1 0 0 1 1 2 1 0 0 0 1 0 0 0 1 2 4 5 5 7 7 6
0 0 0 0 0 0 0 0 0 0 0 1 3 3 1 2 6 6 4 6 5 2 1 1 0 0 0 0 0 0 0 0 0 0 0 0 0 3 5 4 4 6 5
CIN
-103 -84 -60 -39 -33 -49 -29 -34 -42 -64 -78 -131 -78 -87 -50 -22 -20 -21 -28 -24 -31 -47 -60 -61 -56 -55 -52 -61 -79 -80 -76 -93 -62 -87 -100 -93 -57 -91 -82 -86 -83 -64 -151
-0 -134 -115 -60 -47 -20 -24 -29 -47 -58 -80 -161 -150 -107 -77 -36 -15 -15 -17 -30 -32 -41 -55 -75 -73 -57 -48 -61 -68 -59 -50 -57 -66 -76 -94 -89 -63 -77 -147 -152 -155 -171 -214
-204 -167 -201 -116 -77 -31 -17 -28 -39 -56 -75 -107 -185 -127 -107 -75 -28 -20 -20 -24 -43 -27 -40 -46 -50 -46 -55 -46 -45 -44 -64 -69 -65 -80 -84 -70 -52 -94 -124 -155 -186 -276 -270
-0 -38 -191 -220 -160 -93 -50 -23 -27 -30 -43 -58 -77 -107 -69 -67 -48 -32 -22 -21 -20 -28 -28 -21 -17 -17 -20 -20 -16 -17 -22 -31 -40 -61 -52 -55 -68 -101 -161 -259 -263 -361 -294
-53 -0 -170 -217 -238 -178 -153 -138 -54 -29 -17 -26 -44 -50 -30 -26 -25 -28 -26 -29 -33 -28 -26 -24 -22 -20 -13 -14 -21 -18 -15 -18 -28 -57 -94 -102 -117 -152 -273 -279 -371 -334 -229
-0 -229 -108 -181 -240 -219 -201 -171 -185 -118 -34 -16 -16 -13 -10 -10 -10 -10 -12 -13 -14 -22 -18 -23 -28 -26 -26 -22 -23 -21 -20 -15 -25 -57 -91 -148 -102 -5 -286 -277 -258 -227 -195
-0 -0 -0 -0 -0 -202 -190 -212 -206 -190 -134 -103 -63 -37 -15 -13 -11 -10 -17 -22 -21 -26 -20 -18 -19 -19 -18 -20 -22 -30 -31 -44 -50 -50 -64 -80 -99 -87 -108 -121 -122 -129 -138
-0 -0 -0 -0 -0 -0 -0 -0 -0 -0 -89 -166 -169 -161 -121 -82 -69 -49 -57 -50 -49 -46 -48 -44 -34 -26 -19 -18 -21 -28 -25 -29 -38 -49 -71 -57 -66 -61 -58 -53 -99 -109 -136
-0 -0 -0 -0 -0 -0 -0 -0 -0 -0 -0 -0 -0 -42 -245 -183 -150 -127 -162 -100 -66 -60 -52 -41 -34 -32 -29 -25 -21 -42 -55 -78 -48 -54 -59 -42 -43 -44 -67 -51 -29 -34 -108
-0 -0 -0 -0 -0 -0 -0 -0 -0 -0 -0 -0 -0 -0 -0 -0 -0 -245 -222 -143 -94 -69 -75 -74 -56 -53 -108 -138 -78 -29 -41 -63 -71 -82 -72 -96 -94 -80 -89 -109 -57 -72 -107
-0 -0 -0 -0 -0 -0 -0 -0 -0 -0 -0 -0 -0 -0 -0 -0 -212 -85 -285 -173 -115 -111 -86 -74 -80 -219 -0 -143 -208 -119 -100 -158 -147 -170 -176 -152 -137 -131 -124 -124 -122 -61 -79
-0 -0 -0 -0 -0 -0 -0 -0 -0 -0 -0 -0 -0 -0 -0 -0 -0 -0 -0 -0 -0 -40 -46 -0 -0 -0 -0 -0 -0 -110 -120 -235 -193 -116 -155 -164 -148 -132 -119 -113 -117 -127 -109
-0 -0 -0 -0 -0 -0 -0 -0 -0 -0 -0 -0 -0 -0 -0 -0 -0 -0 -0 -0 -0 -0 -0 -0 -0 -0 -0 -0 -0 -0 -0 -77 -204 -232 -192 -157 -152 -181 -188 -148 -149 -127 -123
-0 -0 -0 -0 -0 -0 -0 -0 -0 -0 -0 -0 -0 -0 -0 -0 -0 -0 -0 -0 -0 -0 -0 -0 -0 -0 -0 -0 -0 -0 -0 -0 -0 -211 -122 -110 -140 -160 -179 -206 -190 -144 -142
-0 -0 -0 -0 -0 -0 -0 -0 -0 -0 -0 -0 -0 -0 -0 -0 -0 -0 -0 -0 -0 -0 -0 -0 -0 -0 -0 -0 -0 -0 -0 -0 -0 -108 -67 -73 -82 -117 -143 -147 -185 -182 -163
-0 -0 -0 -0 -0 -0 -0 -0 -0 -0 -0 -0 -0 -0 -0 -0 -0 -0 -0 -0 -0 -0 -0 -0 -0 -0 -0 -0 -0 -0 -0 -0 -0 -1 -6 -81 -77 -75 -90 -110 -104 -87 -79
-0 -0 -0 -0 -0 -0 -0 -0 -0 -0 -0 -0 -0 -0 -0 -0 -0 -0 -0 -0 -0 -0 -0 -0 -0 -0 -0 -1 -0 -0 -0 -0 -0 -0 -11 -45 -13 -2 -18 -46 -74 -68 -50
-0 -0 -0 -0 -0 -0 -0 -0 -0 -0 -0 -0 -0 -0 -0 -0 -0 -0 -0 -0 -0 -0 -0 -0 -0 -0 -0 -0 -0 -0 -0 -0 -0 -0 -0 -0 -19 -2 -19 -44 -32 -32 -81
-0 -0 -0 -0 -0 -0 -0 -0 -0 -0 -0 -0 -0 -0 -0 -0 -0 -0 -0 -0 -0 -0 -0 -0 -0 -0 -0 -0 -0 -0 -0 -0 -0 -0 -0 -0 -0 -0 -0 -34 -71 -58 -0
-0 -0 -0 -0 -0 -0 -0 -0 -0 -0 -0 -0 -0 -0 -0 -0 -0 -0 -0 -0 -0 -0 -0 -0 -0 -0 -0 -0 -0 -0 -0 -0 -0 -0 -0 -0 -0 -0 -0 -0 -2 -11 -6
-0 -0 -0 -0 -0 -0 -0 -0 -0 -0 -0 -0 -0 -0 -1 -0 -0 -0 -0 -15 -13 -0 -0 -0 -0 -0 -0 -0 -0 -0 -0 -0 -0 -0 -0 -0 -0 -0 -0 -1 -0 -0 -1
-0 -0 -0 -0 -0 -0 -0 -0 -0 -0 -0 -0 -0 -0 -0 -0 -1 -4 -3 -9 -11 -0 -0 -0 -0 -0 -0 -0 -0 -0 -0 -0 -0 -0 -0 -0 -0 -0 -0 -0 -0 -0 -0
-0 -0 -0 -0 -0 -0 -0 -0 -0 -0 -0 -0 -0 -0 -0 -0 -0 -3 -7 -1 -0 -0 -0 -0 -0 -0 -0 -0 -0 -0 -0 -0 -0 -0 -0 -0 -0 -0 -0 -0 -0 -0 -0
-0 -0 -0 -0 -0 -0 -0 -0 -0 -0 -0 -0 -0 -0 -1 -0 -0 -0 -0 -0 -0 -0 -0 -0 -0 -0 -0 -0 -0 -0 -0 -0 -0 -0 -0 -0 -0 -0 -0 -0 -0 -0 -0
-0 -0 -0 -0 -0 -0 -0 -0 -0 -0 -0 -0 -0 -0 -0 -0 -0 -0 -0 -0 -0 -0 -0 -0 -0 -0 -0 -0 -0 -0 -0 -0 -0 -0 -0 -0 -0 -0 -0 -0 -0 -0 -0
-0 -0 -0 -0 -0 -0 -0 -0 -0 -0 -0 -0 -0 -0 -0 -0 -0 -0 -0 -0 -0 -0 -0 -0 -0 -0 -0 -0 -0 -0 -0 -0 -0 -0 -0 -0 -0 -0 -0 -0 -0 -0 -0
Wind_Speed
13 18 19 27 31 30 29 27 27 25 24 23 22 25 26 27 26 26 25 25 24 26 26 26 26 24 24 24 23 22 22 22 25 26 26 28 29 29 28 28 27 27 25
15 19 24 26 29 32 31 27 28 29 27 25 19 26 26 27 27 26 26 27 26 25 26 26 27 26 27 26 26 26 25 24 25 29 28 29 29 28 27 26 25 27 27
20 20 23 26 27 30 32 28 26 29 28 25 28 28 29 28 27 27 26 26 27 27 25 25 25 26 26 26 27 27 27 27 25 25 29 27 28 26 27 26 28 29 28
15 16 20 23 22 22 25 30 27 28 30 28 28 30 30 30 28 29 28 28 27 28 28 27 27 27 27 27 27 28 28 28 27 27 28 27 24 25 24 28 31 31 31
12 13 17 21 17 21 22 23 26 29 32 29 27 30 30 29 19 21 30 30 30 30 30 29 29 30 30 30 30 31 30 26 26 25 25 24 27 29 31 28 32 31 32
13 13 11 15 13 18 21 24 25 26 28 28 29 25 27 25 28 31 32 32 32 32 31 31 31 32 31 31 30 29 31 31 21 23 27 29 29 32 28 32 31 30 27
13 14 13 10 15 19 21 22 24 26 27 26 24 24 27 27 29 28 29 30 33 33 34 34 34 32 32 31 31 30 30 29 12 13 13 23 26 28 27 31 30 28 25
14 14 15 15 15 16 18 19 22 25 27 26 26 25 26 26 27 29 28 30 31 32 31 31 32 33 35 35 36 36 34 31 28 24 17 15 13 20 22 26 27 28 27
14 15 16 17 17 18 19 19 19 24 24 25 25 27 28 29 29 28 28 30 32 33 32 31 31 33 34 35 34 38 39 40 32 28 12 11 11 13 21 25 32 33 35
16 16 17 18 17 18 18 18 20 23 22 23 25 25 25 27 30 30 29 30 32 32 33 33 33 32 33 33 35 37 39 37 36 36 35 35 30 23 18 17 23 21 25
17 18 19 19 20 20 20 20 21 21 22 23 24 23 23 24 28 28 27 27 29 31 32 31 29 31 32 32 31 32 34 35 36 36 35 35 33 30 26 23 19 18 20
20 20 21 22 22 23 24 25 25 25 25 25 25 24 22 21 21 21 22 23 25 27 29 29 30 33 35 36 37 37 37 36 36 38 39 39 35 32 28 25 22 21 19
22 23 24 25 26 26 26 26 27 28 28 28 28 27 26 24 25 28 28 27 29 30 31 32 35 36 37 37 36 38 36 35 38 39 40 40 38 36 33 31 28 26 25
24 24 25 27 28 28 27 28 29 29 30 31 32 32 32 31 32 31 30 31 32 33 34 35 36 37 36 36 37 37 37 36 36 37 38 38 38 37 36 33 32 32 31
24 25 26 26 27 28 29 29 29 29 29 32 33 34 34 36 36 38 37 35 34 33 34 35 36 36 37 37 35 35 35 35 37 37 38 38 38 37 37 34 33 33 30
24 25 26 27 26 27 28 30 30 31 33 32 32 32 34 35 37 38 38 37 36 34 35 37 38 38 37 36 36 36 35 36 37 38 38 39 39 38 38 36 32 30 31
25 26 26 27 28 29 30 31 34 34 33 33 34 36 35 36 37 38 37 36 34 33 38 40 40 38 37 35 36 36 36 36 38 38 38 39 39 40 40 39 34 32 32
25 26 26 28 29 30 31 32 33 36 37 37 36 37 38 38 37 38 37 36 38 36 37 37 36 34 33 34 36 38 39 40 38 40 41 41 40 40 41 38 34 33 31
26 27 28 29 31 32 34 35 36 37 37 39 39 37 37 39 40 37 35 38 42 42 39 36 32 32 34 37 38 38 39 40 41 41 40 41 41 41 42 40 37 35 33
26 28 30 31 33 35 36 38 40 40 42 42 42 42 42 43 42 42 41 40 41 39 34 31 32 34 36 38 39 40 42 42 42 42 42 42 41 41 41 41 37 37 36
27 28 29 31 33 35 37 39 40 42 44 44 44 43 43 43 43 43 41 37 35 34 34 33 35 37 37 38 39 40 41 43 43 43 43 43 42 43 43 42 41 40 39
26 27 28 31 33 35 37 39 41 43 45 47 47 46 46 46 45 45 44 40 38 36 36 37 39 40 40 41 41 41 42 44 44 44 44 44 45 45 44 43 42 40 39
25 26 29 32 33 36 39 40 42 44 46 47 49 49 48 48 46 45 45 42 41 40 40 41 43 44 43 43 43 43 44 45 44 44 46 46 46 46 45 45 44 42 41
25 26 30 32 34 37 40 42 44 45 46 47 48 49 49 49 49 51 50 47 46 46 45 46 46 47 45 45 45 45 45 45 44 45 46 48 48 46 45 46 45 44 43
25 28 30 32 35 39 41 44 46 45 46 46 47 48 47 47 48 49 48 49 50 50 50 49 48 48 48 47 46 46 47 48 48 47 47 47 48 48 46 46 46 46 44
24 26 28 30 33 37 40 43 44 43 44 44 43 43 45 45 46 46 47 45 46 47 47 47 46 46 46 45 45 46 47 47 47 46 45 46 47 47 45 45 46 44 44
Wind_Direction
262 259 262 245 228 226 224 229 190 184 178 174 164 176 188 206 211 209 221 224 236 234 238 238 242 253 259 266 273 282 287 298 293 297 305 301 308 310 308 313 328 341 6
271 268 259 254 246 237 234 245 232 212 224 226 151 190 185 201 211 212 221 220 227 237 233 243 242 253 255 264 269 275 284 293 301 288 296 297 303 314 326 338 345 350 357
283 275 270 259 256 248 239 248 252 240 242 247 226 196 205 204 224 217 219 227 229 229 234 235 234 245 246 256 264 272 281 291 306 312 304 314 315 323 320 331 331 322 351
330 305 284 266 262 264 259 246 256 254 243 249 245 231 209 211 241 229 221 229 244 239 232 239 230 241 242 250 259 260 268 283 296 304 305 313 327 325 331 321 304 319 317
352 353 292 268 269 267 269 265 259 254 250 254 256 248 246 250 279 203 231 234 245 237 239 247 250 258 251 250 273 268 277 299 306 313 316 322 317 312 295 319 310 322 326
358 359 1 267 287 279 274 274 271 265 261 260 259 264 262 268 262 249 241 245 239 244 240 240 249 259 260 260 274 281 279 282 317 317 311 306 267 294 317 303 313 326 340
2 352 0 322 289 287 282 279 282 274 269 268 270 271 268 270 268 270 270 266 257 254 251 253 252 269 271 279 283 292 290 295 321 322 314 273 319 286 322 315 320 328 335
341 340 324 320 304 309 308 291 294 281 273 273 273 277 276 277 278 276 277 275 274 274 277 277 276 277 274 275 275 279 287 296 304 311 316 317 319 323 325 324 323 325 327
331 330 326 322 322 327 302 298 297 276 280 281 278 279 279 279 282 283 284 281 278 278 282 286 287 286 286 286 289 280 265 276 300 307 294 274 286 306 320 319 310 313 312
331 328 329 322 320 321 323 314 304 291 300 290 287 290 291 288 283 284 287 284 281 283 285 287 289 291 293 294 290 289 287 293 297 296 297 297 306 312 312 312 315 317 320
330 324 322 323 318 316 315 315 310 315 311 305 300 307 301 299 288 289 290 291 290 289 290 292 296 295 295 296 298 298 295 298 298 299 300 302 304 307 308 309 308 307 312
320 317 314 314 315 313 308 305 305 305 303 304 304 303 306 306 308 309 306 303 301 299 296 298 299 297 295 295 294 294 294 297 298 298 297 297 301 304 307 307 305 302 300
313 312 309 307 308 309 308 306 303 301 299 299 300 301 299 301 300 300 301 302 300 300 298 297 298 298 297 296 296 296 298 298 296 295 296 296 299 300 302 302 302 301 300
309 309 310 307 304 305 307 306 304 302 299 298 296 296 295 294 296 300 305 303 299 299 297 296 297 299 299 299 299 299 298 296 297 297 297 298 300 300 301 303 302 301 300
310 309 309 309 307 304 303 304 304 304 305 301 298 297 296 294 293 294 292 295 298 299 299 299 298 299 299 299 302 303 303 301 298 297 297 298 299 301 300 303 303 301 299
311 311 311 310 310 310 307 303 302 303 302 303 302 301 300 297 296 297 297 294 294 296 296 296 296 298 299 300 302 302 305 304 302 300 299 297 297 298 298 300 302 301 301
311 311 311 311 310 309 307 306 302 302 304 303 302 301 300 301 301 300 299 299 299 298 293 292 293 296 298 300 300 302 303 304 303 303 302 300 298 296 295 296 299 300 298
310 311 311 311 310 309 308 306 305 303 301 301 303 302 301 301 302 302 302 301 297 297 295 295 294 295 298 300 301 300 300 301 302 301 299 299 298 297 297 298 298 297 297
310 310 310 310 310 309 308 306 305 303 301 300 301 301 302 300 300 302 303 299 296 294 294 293 293 294 296 298 298 300 300 300 299 300 301 301 299 300 299 299 300 300 300
314 312 312 311 310 309 309 307 305 303 301 299 298 297 299 299 297 296 298 299 297 296 298 295 295 295 297 298 298 298 298 298 298 298 297 299 301 301 301 302 301 301 301
315 315 314 314 313 312 311 309 307 304 301 299 298 298 298 296 295 295 295 296 297 297 295 296 296 296 298 298 298 298 298 297 297 296 296 295 297 297 298 299 299 299 301
315 315 317 316 316 315 314 312 310 306 303 299 298 297 296 294 293 292 292 291 291 292 293 294 294 295 296 296 297 297 297 297 297 296 294 294 294 294 296 296 296 297 299
317 316 317 317 318 317 316 314 312 309 305 301 298 295 294 292 292 291 291 291 290 289 290 291 291 291 292 293 293 294 296 295 296 295 293 292 292 291 292 292 293 292 296
318 317 317 318 319 319 318 316 314 311 307 304 301 298 295 293 291 289 288 288 288 288 289 289 289 289 289 290 290 290 292 294 294 293 292 290 289 289 289 289 289 290 290
318 318 318 319 320 320 320 319 317 313 310 308 305 301 298 296 294 292 291 288 287 286 286 287 287 286 286 287 288 289 291 290 291 291 290 288 287 286 286 286 286 287 288
319 320 321 322 323 325 323 321 319 317 314 311 308 305 302 299 297 295 293 291 289 288 287 287 286 286 286 286 287 290 290 290 289 289 289 287 285 285 284 283 283 284 284